Burbank, CA

3:49 AM PDT on September 21, 2017 (GMT -0700)
Burbank-Glendale-Pasadena

Weather History for KBUR - September, 2013

Change the Weather History Date:

Friday, September 6, 2013

  Actual Average Record
Temperature  
Mean Temperature 91 °F 75 °F  
Max Temperature 104 °F 88 °F 111 °F (1955)
Min Temperature 77 °F 62 °F 47 °F (1942)
Degree Days  
Heating Degree Days 0 0  
Month to date heating degree days 0 0  
Since 1 July heating degree days 0 0  
Cooling Degree Days 26 10  
Month to date cooling degree days 138 60  
Year to date cooling degree days 1567 942  
Growing Degree Days 40 (Base 50)    
Moisture  
Dew Point 52 °F    
Average Humidity 32    
Maximum Humidity 48    
Minimum Humidity 15    
Precipitation  
Precipitation 0.00 in 0.00 in 0.82 in (1976)
Month to date precipitation 0.00 0.01  
Year to date precipitation 2.61 12.65  
Since 1 July precipitation 0.01  
Sea Level Pressure  
Sea Level Pressure 29.80 in    
Wind  
Wind Speed 4 mph (SE)    
Max Wind Speed 13 mph    
Max Gust Speed 22 mph    
Visibility 10 miles    
Events      
T = Trace of Precipitation, MM = Missing Value Source: NWS Daily Summary

Daily Weather History Graph

Daily Weather History Graph

Search for Another Location

Airport or City:

Trip Planner

Search our weather history database for the weather conditions in past years. The results will help you decide how hot, cold, wet, or windy it might be!

Date:

Astronomy

Sep. 06, 2013 Rise Set
Actual Time 6:30 AM PDT 7:12 PM PDT
Civil Twilight 6:05 AM PDT 7:37 PM PDT
Nautical Twilight 5:35 AM PDT 8:07 PM PDT
Astronomical Twilight 5:04 AM PDT 8:37 PM PDT
Moon 7:42 AM PDT (9/6) 7:46 PM PDT (9/6)
Length of Visible Light 13h 32m
Length of Day
12h 41m
New Moon, 2% of the Moon is Illuminated
Sep 6
New Moon
Sep 12
First Quarter
Sep 19
Full
Sep 26
Last Quarter
Oct 4
New

Hourly Weather History & Observations

Time (PDT) Temp. Heat Index Dew Point Humidity Pressure Visibility Wind Dir Wind Speed Gust Speed Precip Events Conditions
12:53 AM 82.9 °F 82.1 °F 55.9 °F 39% 29.83 in 10.0 mi East 3.5 mph - N/A   Clear
1:53 AM 81.0 °F 80.8 °F 55.9 °F 42% 29.81 in 10.0 mi WNW 3.5 mph - N/A   Clear
2:53 AM 80.1 °F 80.4 °F 57.0 °F 45% 29.81 in 10.0 mi East 3.5 mph - N/A   Clear
3:53 AM 79.0 °F - 57.9 °F 48% 29.81 in 10.0 mi Calm Calm - N/A   Clear
4:53 AM 80.1 °F 80.2 °F 55.9 °F 43% 29.81 in 10.0 mi Calm Calm - N/A   Clear
5:53 AM 77.0 °F - 53.1 °F 43% 29.82 in 10.0 mi Calm Calm - N/A   Clear
6:53 AM 79.0 °F - 52.0 °F 39% 29.82 in 9.0 mi West 4.6 mph - N/A   Clear
7:53 AM 81.0 °F 80.8 °F 55.9 °F 42% 29.84 in 10.0 mi Calm Calm - N/A   Clear
8:53 AM 86.0 °F 84.0 °F 53.1 °F 32% 29.84 in 10.0 mi Calm Calm - N/A   Clear
9:53 AM 91.9 °F - 48.9 °F 23% 29.84 in 10.0 mi Calm Calm - N/A   Clear
10:53 AM 96.1 °F - 48.0 °F 19% 29.83 in 10.0 mi Calm Calm - N/A   Clear
11:53 AM 99.0 °F - 48.9 °F 18% 29.82 in 10.0 mi Calm Calm - N/A   Clear
12:53 PM 102.9 °F - 51.1 °F 18% 29.80 in 10.0 mi South 9.2 mph - N/A   Clear
1:53 PM 102.9 °F - 48.9 °F 16% 29.78 in 10.0 mi SSE 10.4 mph - N/A   Clear
2:53 PM 102.9 °F - 46.9 °F 15% 29.75 in 10.0 mi South 11.5 mph - N/A   Clear
3:53 PM 100.9 °F - 50.0 °F 18% 29.74 in 10.0 mi SE 8.1 mph - N/A   Clear
4:53 PM 99.0 °F - 46.9 °F 17% 29.75 in 10.0 mi SSE 9.2 mph - N/A   Clear
5:53 PM 97.0 °F - 46.0 °F 18% 29.74 in 10.0 mi ESE 6.9 mph - N/A   Clear
6:53 PM 93.0 °F - 50.0 °F 23% 29.75 in 10.0 mi ESE 10.4 mph - N/A   Clear
7:53 PM 91.0 °F - 48.0 °F 23% 29.77 in 10.0 mi SE 4.6 mph - N/A   Clear
8:53 PM 88.0 °F - 51.1 °F 28% 29.78 in 10.0 mi East 3.5 mph - N/A   Clear
9:53 PM 86.0 °F 84.0 °F 53.1 °F 32% 29.80 in 10.0 mi SE 4.6 mph - N/A   Clear
10:53 PM 82.9 °F 82.0 °F 55.0 °F 38% 29.80 in 10.0 mi Calm Calm - N/A   Clear
11:53 PM 82.9 °F 82.1 °F 55.9 °F 39% 29.80 in 10.0 mi Calm Calm - N/A   Clear